Weather History for NZCH - October, 2012

Change the Weather History Date:

Friday, October 19, 2012

  Actual Average Record
Temperature  
Mean Temperature 48 °F -  
Max Temperature 55 °F 60 °F 75 °F (2006)
Min Temperature 42 °F 41 °F 26 °F (2007)
Degree Days  
Heating Degree Days 16    
Moisture  
Dew Point 37 °F    
Average Humidity 65    
Maximum Humidity 87    
Minimum Humidity 44    
Precipitation  
Precipitation 0.00 in - - ()
Sea Level Pressure  
Sea Level Pressure 29.64 in    
Wind  
Wind Speed 12 mph ()    
Max Wind Speed 22 mph    
Max Gust Speed 26 mph    
Visibility 6.2 miles    
Events Rain    
Averages and records for this station are not official NWS values.
T = Trace of Precipitation, MM = Missing Value Source: Averaged Metar Reports

Daily Weather History Graph

Daily Weather History Graph

Search for Another Location

Airport or City:

Trip Planner

Search our weather history database for the weather conditions in past years. The results will help you decide how hot, cold, wet, or windy it might be!

Date:

Astronomy

Oct. 19, 2012 Rise Set
Actual Time 6:31 AM NZDT 7:58 PM NZDT
Civil Twilight 6:01 AM NZDT 8:28 PM NZDT
Nautical Twilight 5:26 AM NZDT 9:04 PM NZDT
Astronomical Twilight 4:47 AM NZDT 9:43 PM NZDT
Moon 8:57 AM NZDT (10/19) No Moon Set
Length of Visible Light 14h 26m
Length of Day
13h 26m
Waxing Crescent, 17% of the Moon is Illuminated
Oct 19
Waxing Crescent
Oct 22
First Quarter
Oct 30
Full
Nov 7
Last Quarter
Nov 14
New

Hourly Weather History & Observations

Time (NZDT) Temp. Windchill Dew Point Humidity Pressure Visibility Wind Dir Wind Speed Gust Speed Precip Events Conditions
12:00 AM 50.0 °F - 42.8 °F 76% 29.42 in 6.2 mi SW 16.1 mph - N/A   Mostly Cloudy
1:00 AM 50.0 °F - 41.0 °F 71% 29.44 in 6.2 mi SW 15.0 mph - N/A   Mostly Cloudy
2:00 AM 46.4 °F 38.5 °F 42.8 °F 87% 29.44 in 6.2 mi SSW 21.9 mph - N/A Rain Rain Showers
3:00 AM 46.4 °F 39.8 °F 39.2 °F 76% 29.47 in 6.2 mi SSW 16.1 mph - N/A   Mostly Cloudy
4:00 AM 46.4 °F 40.1 °F 37.4 °F 71% 29.50 in 6.2 mi SW 15.0 mph - N/A   Scattered Clouds
5:00 AM 46.4 °F 40.7 °F 37.4 °F 71% 29.53 in 6.2 mi SW 12.7 mph - N/A   Mostly Cloudy
6:00 AM 46.4 °F 41.5 °F 37.4 °F 71% 29.56 in 6.2 mi WSW 10.4 mph - N/A   Mostly Cloudy
7:00 AM 44.6 °F 40.2 °F 35.6 °F 71% 29.59 in 6.2 mi West 8.1 mph - N/A   Partly Cloudy
8:00 AM 42.8 °F 38.6 °F 37.4 °F 81% 29.59 in 6.2 mi West 6.9 mph - N/A   Partly Cloudy
9:00 AM 46.4 °F 41.5 °F 35.6 °F 66% 29.62 in 6.2 mi SW 10.4 mph - N/A   Partly Cloudy
10:00 AM 50.0 °F - 35.6 °F 58% 29.65 in - SW 12.7 mph - N/A   Clear
11:00 AM 50.0 °F - 33.8 °F 54% 29.68 in 6.2 mi SW 12.7 mph - N/A   Scattered Clouds
12:00 PM 53.6 °F - 32.0 °F 44% 29.68 in 6.2 mi SSW 13.8 mph - N/A   Partly Cloudy
1:00 PM 53.6 °F - 33.8 °F 47% 29.68 in 6.2 mi SSW 16.1 mph - N/A   Partly Cloudy
2:00 PM 53.6 °F - 37.4 °F 54% 29.68 in 6.2 mi South 11.5 mph - N/A   Scattered Clouds
3:00 PM 55.4 °F - 35.6 °F 47% 29.68 in 6.2 mi SSW 15.0 mph 26.5 mph N/A   Scattered Clouds
4:00 PM 53.6 °F - 33.8 °F 47% 29.71 in 6.2 mi SSW 17.3 mph - N/A   Scattered Clouds
5:00 PM 51.8 °F - 33.8 °F 50% 29.71 in 6.2 mi South 13.8 mph - N/A   Scattered Clouds
6:00 PM 48.2 °F - 35.6 °F 62% 29.71 in 6.2 mi South 12.7 mph - N/A   Partly Cloudy
7:00 PM 48.2 °F - 35.6 °F 62% 29.74 in 6.2 mi South 16.1 mph - N/A   Partly Cloudy
8:00 PM 46.4 °F 40.7 °F 35.6 °F 66% 29.77 in 6.2 mi South 12.7 mph - N/A   Partly Cloudy
9:00 PM 44.6 °F 42.2 °F 37.4 °F 76% 29.80 in 6.2 mi SW 4.6 mph - N/A   Mostly Cloudy
10:00 PM 44.6 °F 43.1 °F 37.4 °F 76% 29.83 in 6.2 mi WSW 3.5 mph - N/A   Mostly Cloudy
11:00 PM 44.6 °F 41.4 °F 37.4 °F 76% 29.83 in 6.2 mi West 5.8 mph - N/A Rain Light Rain